Location: Beadle
(51.4667°N, 109.0000°W)
Time: 03:37:07
(UTC+00:00)

DIWATA 2B (PO-101) - Visible Passes

Search period start: 28 June 2022 00:00
Search period end: 08 July 2022 00:00
Orbit: 585 x 597 km, 98.0° (Epoch: 27 June)

Date Brightness Start Highest point End Pass type
(mag) Time Alt. Az. Time Alt. Az. Time Alt. Az.
28 Jun ? 07:42:30 10° ESE 07:45:32 20° ENE 07:48:37 10° NNE visible
28 Jun ? 09:16:55 12° S 09:20:42 58° WSW 09:24:54 10° NNW visible
29 Jun ? 07:50:30 10° ESE 07:53:49 23° ENE 07:57:08 10° N visible
29 Jun ? 09:25:22 12° S 09:29:04 48° W 09:33:11 10° NNW visible
30 Jun ? 07:58:34 10° ESE 08:02:05 26° ENE 08:05:37 10° N visible
30 Jun ? 09:33:49 12° SSW 09:37:27 40° W 09:41:27 10° NNW visible
01 Jul ? 08:06:40 10° SE 08:10:21 31° ENE 08:14:05 10° N visible
01 Jul ? 09:42:17 12° SSW 09:45:51 34° W 09:49:42 10° NNW visible
02 Jul ? 08:14:48 10° SE 08:18:39 36° ENE 08:22:32 10° N visible
02 Jul ? 09:50:44 11° SSW 09:54:14 28° W 09:57:55 10° NW visible
03 Jul ? 08:22:58 10° SE 08:26:57 42° ENE 08:30:57 10° N visible
03 Jul ? 09:59:12 10° SSW 10:02:38 24° W 10:06:06 10° NW visible
04 Jul ? 08:31:11 10° SE 08:35:15 51° ENE 08:39:22 10° N visible
04 Jul ? 10:07:54 10° SW 10:11:03 20° W 10:14:14 10° NW visible
05 Jul ? 08:39:33 11° SSE 08:43:34 61° ENE 08:47:44 10° N visible
05 Jul ? 10:16:40 10° SW 10:19:29 17° W 10:22:18 10° NW visible
06 Jul ? 07:15:38 10° ENE 07:17:07 12° NE 07:18:37 10° NNE visible
06 Jul ? 08:48:01 12° SSE 08:51:54 73° ENE 08:56:07 10° N visible
07 Jul ? 07:23:16 10° E 07:25:21 14° NE 07:27:25 10° NNE visible
07 Jul ? 08:56:29 13° SSE 09:00:13 87° ENE 09:04:28 10° NNW visible
